PINEY HOLLOW - NJ NJ-MESONET current weather conditions

sailwx.info

Wind from 013

Air temperature -0.6° C
Dewpoint -6.1° C

Last reported at 2019-Dec-07 13:05 UTC.
Time now 2019-Dec-07 13:39 UTC

Location: N 39°35' W 074°56'.
View on Google Maps.

See reports from other nearby stations

  
Tides and Currents Weather Stations Pressure Air Temp Water Temp Dewpoint Dewpoint Depression Visibility Wind Speed Wind Dir Waves Ship Positions
date/time (UTC)wind fromknots sea level pressurealtimeterstation pressurevisibilityair tempwater tempwave heightnotes
2019-Dec-07 13:05 013 -0.6
2019-Dec-07 13:00 111 -1.1
2019-Dec-07 12:50 191 -2.2
2019-Dec-07 12:45 068 -2.2
2019-Dec-07 12:40 124 -2.8
2019-Dec-07 12:35 014 -2.8
2019-Dec-07 12:30 091 -2.8
2019-Dec-07 12:25 159 -2.8
2019-Dec-07 12:20 277 -3.3
2019-Dec-07 12:15 277 -3.3
2019-Dec-07 12:10 308 -3.3
2019-Dec-07 12:05 317 -3.9
2019-Dec-07 12:00 289 -3.9
2019-Dec-07 11:55 003 -3.9
2019-Dec-07 11:50 324 -3.9
2019-Dec-07 11:45 324 -3.9
2019-Dec-07 11:40 324 -3.3
2019-Dec-07 11:35 324 -3.3
2019-Dec-07 11:30 324 -3.3
2019-Dec-07 11:25 324 -3.3
2019-Dec-07 11:20 324 -3.3
2019-Dec-07 11:15 324 -2.8
2019-Dec-07 11:10 324 -2.8
2019-Dec-07 11:05 315 -2.8
2019-Dec-07 11:00 315 -2.8
2019-Dec-07 10:55 315 -2.2
2019-Dec-07 10:50 315 -2.2
2019-Dec-07 10:45 315 -1.7
2019-Dec-07 10:40 315 -1.7
2019-Dec-07 10:35 315 -1.1
2019-Dec-07 10:30 315 -0.6
2019-Dec-07 10:25 334 -0.0
2019-Dec-07 10:20 319 -0.0
2019-Dec-07 10:15 319 -0.0
2019-Dec-07 10:10 352 -0.0
2019-Dec-07 10:05 -0.0
2019-Dec-07 10:00 280 -0.0
2019-Dec-07 09:55 348 0.6
2019-Dec-07 09:50 238 -0.0
2019-Dec-07 09:45 321 -0.0
2019-Dec-07 09:40 322 -0.0
2019-Dec-07 09:35 289 -0.6
2019-Dec-07 09:30 220 -0.6
2019-Dec-07 09:25 107 -0.6
2019-Dec-07 09:20 315 -0.0
2019-Dec-07 09:15 057 -0.0
2019-Dec-07 09:10 340 -0.6
2019-Dec-07 09:05 252 -1.1
2019-Dec-07 09:00 273 -1.1
2019-Dec-07 08:55 313 -1.1
2019-Dec-07 08:50 355 -0.6
2019-Dec-07 08:45 006 -0.6
2019-Dec-07 08:40 004 -0.0
2019-Dec-07 08:35 004 -0.0
2019-Dec-07 08:30 004 0.6
2019-Dec-07 08:25 352 0.6
2019-Dec-07 08:20 281 1.1
2019-Dec-07 08:15 347 1.1
2019-Dec-07 08:10 338 1.1
2019-Dec-07 08:05 352 1.7
2019-Dec-07 08:00 055 1.7
2019-Dec-07 07:55 318 1 gusting 4 1.7
2019-Dec-07 07:50 074 1.7
2019-Dec-07 07:45 224 1.7
2019-Dec-07 07:40 341 1 gusting 5 1.7
2019-Dec-07 07:35 065 1.1
2019-Dec-07 07:30 012 1.7
2019-Dec-07 07:25 044 1.1
2019-Dec-07 07:20 001 1.7
2019-Dec-07 07:15 319 1.7
2019-Dec-07 07:10 118 1.7
2019-Dec-07 07:05 026 1.7
2019-Dec-07 07:00 039 1.7
2019-Dec-07 06:55 326 1.7
2019-Dec-07 06:50 326 2.2
2019-Dec-07 06:45 290 2.2
2019-Dec-07 06:40 014 2.8
2019-Dec-07 06:35 014 2.8
2019-Dec-07 06:30 355 3.3
2019-Dec-07 06:25 112 3.3
2019-Dec-07 06:20 337 3.9
2019-Dec-07 06:15 098 3.9
2019-Dec-07 06:10 015 3.3
2019-Dec-07 06:05 352 3.9
2019-Dec-07 06:00 320 3.9
2019-Dec-07 05:55 355 3.9
2019-Dec-07 05:50 354 3.9
2019-Dec-07 05:45 353 3.9
2019-Dec-07 05:40 346 4.4
2019-Dec-07 05:35 011 2 gusting 4 5.0
2019-Dec-07 05:30 314 4 gusting 6 5.0
2019-Dec-07 05:25 336 2 gusting 8 5.0
2019-Dec-07 05:20 273 2 gusting 9 5.0
2019-Dec-07 05:15 344 1 gusting 6 5.0
2019-Dec-07 05:10 352 6 gusting 8 5.0
2019-Dec-07 05:05 332 5 gusting 6 5.6
2019-Dec-07 05:00 269 5.6
2019-Dec-07 04:55 351 4 gusting 10 5.6
2019-Dec-07 04:50 001 6 gusting 10 5.6
2019-Dec-07 04:45 6.1
2019-Dec-07 04:40 289 4 gusting 11 6.1
2019-Dec-07 04:35 323 1 gusting 9 6.1
2019-Dec-07 04:30 350 6 gusting 10 6.1
2019-Dec-07 04:25 280 3 gusting 11 6.1
2019-Dec-07 04:20 304 4 gusting 9 6.7
2019-Dec-07 04:15 345 2 gusting 10 6.7
2019-Dec-07 04:10 329 0 gusting 11 6.7
2019-Dec-07 04:05 304 10 gusting 10 7.2
2019-Dec-07 04:00 018 1 gusting 8 7.2
2019-Dec-07 03:55 319 7.2
2019-Dec-07 03:50 325 1 gusting 6 7.2
2019-Dec-07 03:45 329 7.8
2019-Dec-07 03:40 296 3 gusting 7 7.8
2019-Dec-07 03:35 297 2 gusting 10 7.8
2019-Dec-07 03:30 315 2 gusting 9 8.3
2019-Dec-07 03:25 006 7 gusting 11 8.3
2019-Dec-07 03:20 337 8 gusting 13 8.3
2019-Dec-07 03:15 327 4 gusting 10 8.3
2019-Dec-07 03:10 334 4 gusting 10 8.3
2019-Dec-07 03:05 319 9 gusting 9 8.3
2019-Dec-07 03:00 324 2 gusting 9 7.8
2019-Dec-07 02:55 010 6 gusting 10 8.3
2019-Dec-07 02:50 293 2 gusting 7 7.8
2019-Dec-07 02:45 335 8 gusting 9 7.8
2019-Dec-07 02:40 299 7.8
2019-Dec-07 02:35 336 8.3
2019-Dec-07 02:30 321 4 gusting 6 8.3
2019-Dec-07 02:25 288 3 gusting 6 8.3
2019-Dec-07 02:20 298 4 gusting 7 8.3
2019-Dec-07 02:15 339 2 gusting 6 8.3
2019-Dec-07 02:10 294 8.3
2019-Dec-07 02:05 312 2 gusting 5 8.3
2019-Dec-07 02:00 296 3 gusting 7 8.3
2019-Dec-07 01:55 276 8.3
2019-Dec-07 01:50 324 4 gusting 9 8.9
2019-Dec-07 01:45 268 4 gusting 6 8.9
2019-Dec-07 01:40 300 3 gusting 6 8.9
2019-Dec-07 01:35 313 5 gusting 6 8.9
2019-Dec-07 01:30 308 3 gusting 7 8.9
2019-Dec-07 01:25 268 2 gusting 7 9.4
2019-Dec-07 01:20 284 9.4
2019-Dec-07 01:15 263 2 gusting 6 9.4
2019-Dec-07 01:10 268 9.4
2019-Dec-07 01:05 290 9.4
2019-Dec-07 01:00 301 3 gusting 7 9.4
2019-Dec-07 00:55 316 1 gusting 6 9.4
2019-Dec-07 00:50 216 2 gusting 5 9.4
2019-Dec-07 00:45 286 2 gusting 6 9.4
2019-Dec-07 00:40 274 6 gusting 7 9.4
2019-Dec-07 00:35 269 4 gusting 6 9.4
2019-Dec-07 00:30 262 9.4
2019-Dec-07 00:25 214 3 gusting 5 9.4
2019-Dec-07 00:20 242 1 gusting 8 9.4
2019-Dec-07 00:15 246 2 gusting 7 9.4
2019-Dec-07 00:10 253 9.4
2019-Dec-07 00:05 246 3 gusting 6 9.4
2019-Dec-07 00:00 223 3 gusting 8 9.4
2019-Dec-06 23:55 221 1 gusting 6 9.4
2019-Dec-06 23:50 152 3 gusting 6 8.9
2019-Dec-06 23:45 249 8.9
2019-Dec-06 23:40 256 3 gusting 4 8.9
2019-Dec-06 23:35 226 8.9
2019-Dec-06 23:30 275 0 gusting 4 8.9
2019-Dec-06 23:25 257 8.9
2019-Dec-06 23:20 274 8.9
2019-Dec-06 23:15 264 8.9
2019-Dec-06 23:10 200 0 gusting 5 8.9
2019-Dec-06 23:05 196 8.9
2019-Dec-06 23:00 239 8.9
2019-Dec-06 22:55 245 8.9
2019-Dec-06 22:50 274 8.9
2019-Dec-06 22:45 167 9.4
2019-Dec-06 22:40 225 9.4
2019-Dec-06 22:35 258 10.0
2019-Dec-06 22:30 206 10.0
2019-Dec-06 22:25 240 0 gusting 4 10.0
2019-Dec-06 22:20 259 10.0
2019-Dec-06 22:15 235 3 gusting 6 10.0
2019-Dec-06 22:10 288 10.0
2019-Dec-06 22:05 265 10.0
2019-Dec-06 22:00 270 1 gusting 4 10.0
2019-Dec-06 21:55 247 10.0
2019-Dec-06 21:50 256 3 gusting 3 10.0
2019-Dec-06 21:45 212 1 gusting 6 10.0
2019-Dec-06 21:40 244 10.0
2019-Dec-06 21:35 255 10.0
2019-Dec-06 21:30 196 10.0
2019-Dec-06 21:25 253 0 gusting 5 10.0
2019-Dec-06 21:20 246 10.0
2019-Dec-06 21:15 288 3 gusting 3 10.0
2019-Dec-06 21:10 246 10.0
2019-Dec-06 21:05 216 10.0
2019-Dec-06 21:00 188 3 gusting 7 10.0
2019-Dec-06 20:55 144 10.0
2019-Dec-06 20:50 114 3 gusting 5 10.0
2019-Dec-06 20:45 239 10.6
2019-Dec-06 20:40 244 2 gusting 4 10.0
2019-Dec-06 20:35 159 10.6
2019-Dec-06 20:30 043 10.6
2019-Dec-06 20:25 240 10.0
2019-Dec-06 20:20 340 10.0
2019-Dec-06 20:15 125 10.0
2019-Dec-06 20:10 260 10.0
2019-Dec-06 20:05 296 1 gusting 6 10.0
2019-Dec-06 20:00 270 10.0
2019-Dec-06 19:55 219 0 gusting 4 10.0
2019-Dec-06 19:50 248 10.0
2019-Dec-06 19:45 218 9.4
2019-Dec-06 19:40 227 10.0
2019-Dec-06 19:35 253 9.4
2019-Dec-06 19:30 148 10.0
2019-Dec-06 19:25 296 9.4
2019-Dec-06 19:20 264 3 gusting 4 9.4
2019-Dec-06 19:15 156 9.4
2019-Dec-06 19:10 256 9.4
2019-Dec-06 19:05 197 9.4
2019-Dec-06 19:00 182 9.4
2019-Dec-06 18:55 222 1 gusting 6 9.4
2019-Dec-06 18:50 282 9.4
2019-Dec-06 18:45 189 4 gusting 6 9.4
2019-Dec-06 18:40 199 2 gusting 5 8.9
2019-Dec-06 18:35 154 2 gusting 4 8.9
2019-Dec-06 18:30 205 8.9
2019-Dec-06 18:25 254 3 gusting 6 8.9
2019-Dec-06 18:20 199 8.9
2019-Dec-06 18:15 196 4 gusting 8 8.3
2019-Dec-06 18:10 211 8.3
2019-Dec-06 18:05 006 8.3
2019-Dec-06 18:00 151 8.3
2019-Dec-06 17:55 214 4 gusting 9 8.3
2019-Dec-06 17:50 118 1 gusting 7 8.3
2019-Dec-06 17:45 057 8.3
2019-Dec-06 17:40 332 8.3
2019-Dec-06 17:35 154 0 gusting 6 8.3
2019-Dec-06 17:30 236 4 gusting 6 8.3
2019-Dec-06 17:25 183 5 gusting 11 7.8
2019-Dec-06 17:20 172 3 gusting 6 7.8
2019-Dec-06 17:15 124 1 gusting 9 7.8
2019-Dec-06 17:10 207 4 gusting 10 7.8
2019-Dec-06 17:05 176 4 gusting 10 7.8
2019-Dec-06 17:00 104 7 gusting 9 7.8
2019-Dec-06 16:55 187 4 gusting 11 7.8
2019-Dec-06 16:50 176 1 gusting 9 7.8
2019-Dec-06 16:45 077 2 gusting 10 7.8
2019-Dec-06 16:40 056 7.8
2019-Dec-06 16:35 206 7.8
2019-Dec-06 16:30 052 2 gusting 7 7.8
2019-Dec-06 16:25 234 2 gusting 6 8.3
2019-Dec-06 16:20 305 7.8
2019-Dec-06 16:15 238 0 gusting 6 7.8
2019-Dec-06 16:10 092 7.2
2019-Dec-06 16:05 298 7.2
2019-Dec-06 16:00 085 6.7
2019-Dec-06 15:55 171 6.7
2019-Dec-06 15:50 187 6.1
2019-Dec-06 15:45 229 6.1
2019-Dec-06 15:40 168 5 gusting 6 5.6
2019-Dec-06 15:35 201 1 gusting 6 5.6
2019-Dec-06 15:30 120 1 gusting 6 5.6
2019-Dec-06 15:25 174 1 gusting 10 5.6
2019-Dec-06 15:20 141 2 gusting 8 5.6
2019-Dec-06 15:15 162 5.6
2019-Dec-06 15:10 128 2 gusting 6 5.6
2019-Dec-06 15:05 136 1 gusting 6 5.6
2019-Dec-06 15:00 175 3 gusting 5 5.6
2019-Dec-06 14:55 186 1 gusting 6 5.6
2019-Dec-06 14:50 292 5.6
2019-Dec-06 14:45 229 1 gusting 4 5.0
2019-Dec-06 14:40 188 4.4
2019-Dec-06 14:35 056 4.4
2019-Dec-06 14:30 187 4.4
2019-Dec-06 14:25 160 3.9
2019-Dec-06 14:20 122 3.9
2019-Dec-06 14:15 247 3.3
2019-Dec-06 14:10 319 3.3
2019-Dec-06 14:05 223 2.8
2019-Dec-06 14:00 223 2.2
2019-Dec-06 13:55 214 2.2
2019-Dec-06 13:50 210 1.7
2019-Dec-06 13:45 165 1.1
2019-Dec-06 13:40 263 1.1
2019-Dec-06 13:35 282 0.6
2019-Dec-06 13:30 299 -0.0
2019-Dec-06 13:25 340 -0.6
2019-Dec-06 13:20 340 -1.1
2019-Dec-06 13:15 340 -1.1
2019-Dec-06 13:10 265 -1.7
2019-Dec-06 13:05 265 -1.7
2019-Dec-06 13:00 265 -2.2
2019-Dec-06 12:55 265 -2.2
2019-Dec-06 12:50 265 -2.8
2019-Dec-06 12:45 265 -2.8
2019-Dec-06 12:40 265 -3.3
2019-Dec-06 12:35 265 -3.3
2019-Dec-06 12:30 265 -3.3
2019-Dec-06 12:25 265 -3.3
2019-Dec-06 12:20 265 -3.3
2019-Dec-06 12:15 265 -3.3
2019-Dec-06 12:10 265 -3.3
2019-Dec-06 12:05 265 -3.3
2019-Dec-06 12:00 265 -3.3
2019-Dec-06 11:55 265 -3.3
2019-Dec-06 11:50 265 -3.3
2019-Dec-06 11:45 265 -3.3
2019-Dec-06 11:40 265 -3.3
2019-Dec-06 11:35 265 -3.3
2019-Dec-06 11:30 265 -3.3
2019-Dec-06 11:25 265 -3.3
2019-Dec-06 11:20 265 -3.3
2019-Dec-06 11:15 265 -3.3
2019-Dec-06 11:10 265 -3.3
2019-Dec-06 11:05 265 -3.3
2019-Dec-06 11:00 265 -3.3
2019-Dec-06 10:55 265 -3.3
2019-Dec-06 10:50 265 -3.3
2019-Dec-06 10:45 265 -3.3
2019-Dec-06 10:40 265 -2.8
2019-Dec-06 10:35 265 -2.8
2019-Dec-06 10:30 265 -2.8
2019-Dec-06 10:25 265 -2.8
2019-Dec-06 10:20 265 -2.8
2019-Dec-06 10:15 265 -2.8
2019-Dec-06 10:10 265 -2.8
2019-Dec-06 10:05 265 -2.8
2019-Dec-06 10:00 265 -2.8
2019-Dec-06 09:55 265 -2.8
2019-Dec-06 09:50 265 -2.8
2019-Dec-06 09:45 265 -2.8
2019-Dec-06 09:40 265 -2.2
2019-Dec-06 09:35 265 -2.2
2019-Dec-06 09:30 265 -2.2
2019-Dec-06 09:25 265 -2.2
2019-Dec-06 09:20 265 -2.2
2019-Dec-06 09:15 265 -2.2
2019-Dec-06 09:10 265 -1.7
2019-Dec-06 09:05 265 -1.7
2019-Dec-06 09:00 265 -1.7
2019-Dec-06 08:55 265 -1.7
2019-Dec-06 08:50 265 -1.7
2019-Dec-06 08:45 265 -1.7
2019-Dec-06 08:40 265 -1.7
2019-Dec-06 08:35 265 -1.7
2019-Dec-06 08:30 265 -1.7
2019-Dec-06 08:25 265 -1.7
2019-Dec-06 08:20 265 -1.7
2019-Dec-06 08:15 265 -1.7
2019-Dec-06 08:10 265 -1.7
2019-Dec-06 08:05 265 -1.7
2019-Dec-06 08:00 265 -1.7
2019-Dec-06 07:55 265 -1.1
2019-Dec-06 07:50 265 -1.1
2019-Dec-06 07:45 265 -1.1
2019-Dec-06 07:40 265 -1.1
2019-Dec-06 07:35 265 -1.1
2019-Dec-06 07:30 265 -1.1
2019-Dec-06 07:25 265 -1.1
2019-Dec-06 07:20 265 -1.1
2019-Dec-06 07:15 257 -0.6
2019-Dec-06 07:10 262 -0.6
2019-Dec-06 07:05 262 -0.6
2019-Dec-06 07:00 262 -1.1
2019-Dec-06 06:55 278 -1.1
2019-Dec-06 06:50 278 -1.7
2019-Dec-06 06:45 292 -1.7
2019-Dec-06 06:40 271 -1.1
2019-Dec-06 06:35 271 -1.1
2019-Dec-06 06:30 271 -1.1
2019-Dec-06 06:25 271 -1.1
2019-Dec-06 06:20 271 -1.1
2019-Dec-06 06:15 271 -1.1
2019-Dec-06 06:10 260 -0.6
2019-Dec-06 06:05 212 -0.6
2019-Dec-06 06:00 212 -0.6
2019-Dec-06 05:55 349 -0.0
2019-Dec-06 05:50 236 -0.6
2019-Dec-06 05:45 236 -0.6
2019-Dec-06 05:40 236 -0.6
2019-Dec-06 05:35 236 -0.6
2019-Dec-06 05:30 284 -0.6
2019-Dec-06 05:25 291 -0.0
2019-Dec-06 05:20 278 -0.0
2019-Dec-06 05:15 243 0.6
2019-Dec-06 05:10 243 0.6
2019-Dec-06 05:05 243 1.1
2019-Dec-06 05:00 212 1.1
2019-Dec-06 04:55 213 1.1
2019-Dec-06 04:50 295 1.1
2019-Dec-06 04:45 249 1.1
2019-Dec-06 04:40 279 1.1
2019-Dec-06 04:35 233 1.1
2019-Dec-06 04:30 236 1.1
2019-Dec-06 04:25 293 1.1
2019-Dec-06 04:20 284 1.1
2019-Dec-06 04:15 250 1.7
2019-Dec-06 04:10 184 1.7
2019-Dec-06 04:05 240 1.7
2019-Dec-06 04:00 251 1.7
2019-Dec-06 03:55 271 1 gusting 3 1.7
2019-Dec-06 03:50 274 3 gusting 4 2.2
2019-Dec-06 03:45 253 2.2
2019-Dec-06 03:40 222 2.2
2019-Dec-06 03:35 247 2.2
2019-Dec-06 03:30 335 2.2
2019-Dec-06 03:25 258 2.2
2019-Dec-06 03:20 281 2.2
2019-Dec-06 03:15 241 2.2
2019-Dec-06 03:10 258 2.8
2019-Dec-06 03:05 243 2.8
2019-Dec-06 03:00 278 2.8
2019-Dec-06 02:55 272 2.8
2019-Dec-06 02:50 255 2 gusting 4 2.8
2019-Dec-06 02:45 206 3.3
2019-Dec-06 02:40 244 3.3
2019-Dec-06 02:35 272 3.3
2019-Dec-06 02:30 232 3.3
2019-Dec-06 02:25 303 2 gusting 5 3.3
2019-Dec-06 02:20 288 5 gusting 5 3.9
2019-Dec-06 02:15 285 3 gusting 6 3.9
2019-Dec-06 02:10 261 4 gusting 5 3.9
2019-Dec-06 02:05 279 4 gusting 4 3.3
2019-Dec-06 02:00 279 3.9
2019-Dec-06 01:55 266 3.9
2019-Dec-06 01:50 227 3.9
2019-Dec-06 01:45 261 2 gusting 4 3.9
2019-Dec-06 01:40 301 2 gusting 5 3.9
2019-Dec-06 01:35 340 4.4
2019-Dec-06 01:30 310 4 gusting 8 4.4
2019-Dec-06 01:25 288 4 gusting 7 4.4
2019-Dec-06 01:20 296 5 gusting 9 4.4
2019-Dec-06 01:15 250 1 gusting 9 4.4
2019-Dec-06 01:10 316 2 gusting 9 4.4
2019-Dec-06 01:05 253 3 gusting 8 4.4
2019-Dec-06 01:00 299 2 gusting 8 4.4
2019-Dec-06 00:55 310 0 gusting 10 4.4
2019-Dec-06 00:50 275 3 gusting 8 4.4
2019-Dec-06 00:45 285 6 gusting 7 4.4
2019-Dec-06 00:40 241 1 gusting 8 4.4
2019-Dec-06 00:35 278 6 gusting 9 4.4
2019-Dec-06 00:30 232 2 gusting 11 4.4
2019-Dec-06 00:25 294 4 gusting 9 4.4
2019-Dec-06 00:20 299 5 gusting 13 5.0
2019-Dec-06 00:15 280 4 gusting 13 5.0
2019-Dec-06 00:10 316 8 gusting 10 5.0
2019-Dec-06 00:05 279 3 gusting 6 5.0
2019-Dec-06 00:00 300 3 gusting 9 5.0
2019-Dec-05 23:55 302 9 gusting 11 5.0
2019-Dec-05 23:50 334 4 gusting 11 5.0
2019-Dec-05 23:45 332 1 gusting 9 5.0
2019-Dec-05 23:40 308 2 gusting 16 5.0
2019-Dec-05 23:35 292 12 gusting 13 5.0
2019-Dec-05 23:30 326 6 gusting 9 5.0
2019-Dec-05 23:25 258 4 gusting 12 5.0
2019-Dec-05 23:20 273 8 gusting 13 5.0
2019-Dec-05 23:15 300 4 gusting 9 5.0
2019-Dec-05 23:10 257 5 gusting 11 5.0
2019-Dec-05 23:05 308 8 gusting 9 5.0
2019-Dec-05 23:00 279 4 gusting 9 5.0
2019-Dec-05 22:55 305 6 gusting 11 5.0
2019-Dec-05 22:50 272 5 gusting 9 5.0
2019-Dec-05 22:45 281 8 gusting 11 5.0
2019-Dec-05 22:40 314 4 gusting 12 5.6
2019-Dec-05 22:35 301 5 gusting 13 5.6
2019-Dec-05 22:30 282 11 gusting 12 5.0
2019-Dec-05 22:25 301 5 gusting 12 5.0
2019-Dec-05 22:20 293 4 gusting 10 5.6
2019-Dec-05 22:15 288 9 gusting 13 5.6
2019-Dec-05 22:10 325 13 gusting 13 5.6
2019-Dec-05 22:05 312 3 gusting 10 5.6
2019-Dec-05 22:00 298 6 gusting 13 5.6
2019-Dec-05 21:55 278 7 gusting 11 5.6
2019-Dec-05 21:50 260 4 gusting 10 5.6
2019-Dec-05 21:45 352 6 gusting 13 5.6
2019-Dec-05 21:40 308 6 gusting 13 5.6
2019-Dec-05 21:35 285 6 gusting 13 5.6
2019-Dec-05 21:30 286 5 gusting 14 5.6
2019-Dec-05 21:25 255 6 gusting 18 5.6
2019-Dec-05 21:20 324 9 gusting 13 5.6
2019-Dec-05 21:15 309 9 gusting 13 5.6
2019-Dec-05 21:10 290 5 gusting 13 5.6
2019-Dec-05 21:05 306 9 gusting 17 5.6
2019-Dec-05 21:00 309 6 gusting 13 5.6
2019-Dec-05 20:55 295 6 gusting 13 5.6
2019-Dec-05 20:50 302 6 gusting 14 5.6
2019-Dec-05 20:45 268 5 gusting 18 5.6
2019-Dec-05 20:40 306 6 gusting 18 5.6
2019-Dec-05 20:35 326 4 gusting 13 5.6
2019-Dec-05 20:30 278 8 gusting 14 5.6
2019-Dec-05 20:25 286 6 gusting 13 5.6
2019-Dec-05 20:20 308 4 gusting 11 5.6
2019-Dec-05 20:15 285 4 gusting 12 5.6
2019-Dec-05 20:10 316 9 gusting 13 5.6
2019-Dec-05 20:05 279 5 gusting 13 5.6
2019-Dec-05 20:00 250 3 gusting 10 5.6
2019-Dec-05 19:55 294 7 gusting 13 5.6
2019-Dec-05 19:50 313 3 gusting 11 5.6
2019-Dec-05 19:45 286 4 gusting 13 5.6
2019-Dec-05 19:40 291 7 gusting 13 5.6
2019-Dec-05 19:35 274 4 gusting 11 5.6
2019-Dec-05 19:30 281 6 gusting 11 5.6
2019-Dec-05 19:25 287 7 gusting 13 5.6
2019-Dec-05 19:20 298 7 gusting 13 5.6
2019-Dec-05 19:15 290 4 gusting 12 5.6
2019-Dec-05 19:10 284 3 gusting 13 5.6
2019-Dec-05 19:05 314 5 gusting 13 5.6
2019-Dec-05 19:00 308 7 gusting 17 5.6
2019-Dec-05 18:55 333 3 gusting 13 5.6
2019-Dec-05 18:50 5.6
2019-Dec-05 18:45 256 7 gusting 17 5.6
2019-Dec-05 18:40 319 8 gusting 17 5.6
2019-Dec-05 18:35 305 9 gusting 16 6.1
2019-Dec-05 18:30 311 9 gusting 14 6.1
2019-Dec-05 18:25 317 6 gusting 13 5.6
2019-Dec-05 18:20 294 5 gusting 16 5.6
2019-Dec-05 18:15 283 10 gusting 19 5.6
2019-Dec-05 18:10 301 6 gusting 13 5.6
2019-Dec-05 18:05 254 4 gusting 14 6.1
2019-Dec-05 18:00 335 3 gusting 13 6.1
2019-Dec-05 17:55 316 11 gusting 17 6.1
2019-Dec-05 17:50 246 9 gusting 12 6.1
2019-Dec-05 17:45 282 6 gusting 13 6.1
2019-Dec-05 17:40 300 4 gusting 12 5.6
2019-Dec-05 17:35 303 4 gusting 17 5.0
2019-Dec-05 17:30 336 6 gusting 17 5.6
2019-Dec-05 17:25 308 13 gusting 13 5.0
2019-Dec-05 17:20 293 6 gusting 13 5.6
2019-Dec-05 17:15 327 7 gusting 16 5.0
2019-Dec-05 17:10 297 18 gusting 18 5.0
2019-Dec-05 17:05 330 4 gusting 13 5.0
2019-Dec-05 17:00 305 4 gusting 19 5.6
2019-Dec-05 16:55 302 6 gusting 15 5.6
2019-Dec-05 16:50 296 10 gusting 17 5.6
2019-Dec-05 16:45 320 8 gusting 13 5.6
2019-Dec-05 16:40 300 5 gusting 13 5.6
2019-Dec-05 16:35 282 8 gusting 15 5.6
2019-Dec-05 16:30 320 9 gusting 18 5.0
2019-Dec-05 16:25 331 10 gusting 16 5.0
2019-Dec-05 16:20 307 13 gusting 25 5.0
2019-Dec-05 16:15 283 9 gusting 23 5.6
2019-Dec-05 16:10 280 6 gusting 17 6.1
2019-Dec-05 16:05 324 9 gusting 18 6.1
2019-Dec-05 16:00 301 6 gusting 18 5.6
2019-Dec-05 15:55 297 9 gusting 18 5.6
2019-Dec-05 15:50 274 6 gusting 17 5.0
2019-Dec-05 15:45 315 13 gusting 21 5.0
2019-Dec-05 15:40 332 13 gusting 21 5.6
2019-Dec-05 15:35 345 8 gusting 18 5.6
2019-Dec-05 15:30 316 9 gusting 22 5.6
2019-Dec-05 15:25 265 13 gusting 18 5.6
2019-Dec-05 15:20 314 9 gusting 14 5.6
2019-Dec-05 15:15 284 12 gusting 13 5.6
2019-Dec-05 15:10 308 6 gusting 18 5.0
2019-Dec-05 15:05 285 10 gusting 14 5.6
2019-Dec-05 15:00 295 9 gusting 14 5.0
2019-Dec-05 14:55 312 9 gusting 18 5.0
2019-Dec-05 14:50 299 13 gusting 19 5.0
2019-Dec-05 14:45 284 9 gusting 13 5.0
2019-Dec-05 14:40 322 3 gusting 13 5.0
2019-Dec-05 14:35 311 6 gusting 13 4.4
2019-Dec-05 14:30 277 7 gusting 13 4.4
2019-Dec-05 14:25 345 6 gusting 14 4.4
2019-Dec-05 14:20 316 4 gusting 15 3.9
2019-Dec-05 14:15 320 6 gusting 15 3.9
2019-Dec-05 14:10 295 3 gusting 13 3.9
2019-Dec-05 14:05 273 6 gusting 13 3.9
2019-Dec-05 14:00 308 11 gusting 13 3.9
2019-Dec-05 13:55 276 6 gusting 11 3.9
2019-Dec-05 13:50 278 8 gusting 9 3.9
2019-Dec-05 13:45 258 2 gusting 10 3.9
2019-Dec-05 13:40 271 7 gusting 9 3.3
2019-Dec-05 13:35 309 4 gusting 11 3.3
2019-Dec-05 13:30 257 4 gusting 10 3.3
2019-Dec-05 13:25 239 4 gusting 10 3.3
2019-Dec-05 13:20 289 5 gusting 9 3.3
2019-Dec-05 13:15 269 7 gusting 13 3.3
2019-Dec-05 13:10 340 1 gusting 13 3.3
2019-Dec-05 13:05 297 6 gusting 9 3.3
2019-Dec-05 13:00 279 6 gusting 9 3.3